Torna al catalogo

NOAA 16 DEB

AttivoPO
NORAD 42339·DEBRIS·🇺🇸 United States

Lanciato Sep 21, 2000 da Vandenberg Space Force Base

Loading…

Prossimi Passaggi (prossime 24 ore)

TLE

AggiornatoSource: Space-Track

Epoca: Sep 12, 2026, 10:27 UTC

1 42339U 00055QF  26255.43575318  .00002846  00000-0  86130-3 0  9998
2 42339  99.0811 130.8164 0018281  34.3465 325.8901 14.43073737540083

Traccia NOAA 16 DEB in tempo reale con AllMySat

Download on the App Store